Weather History for Homer, AK

Change the Weather History Date:

Wednesday, May 30, 2012

  Actual Average Record
Temperature  
Mean Temperature 47 °F -  
Max Temperature 50 °F 52 °F 69 °F (1964)
Min Temperature 43 °F 41 °F 30 °F (1943)
Degree Days  
Heating Degree Days 18    
Moisture  
Dew Point 34 °F    
Average Humidity 62    
Maximum Humidity 76    
Minimum Humidity 56    
Precipitation  
Precipitation 0.00 in - - ()
Sea Level Pressure  
Sea Level Pressure 29.38 in    
Wind  
Wind Speed 9 mph (ENE)    
Max Wind Speed 17 mph    
Max Gust Speed 20 mph    
Visibility 10 miles    
Events      
Averages and records for this station are not official NWS values.
T = Trace of Precipitation, MM = Missing Value Source: NWS Daily Summary

Daily Weather History Graph

Daily Weather History Graph

Search for Another Location

Airport:

Trip Planner

Search our weather history database for the weather conditions in past years. The results will help you decide how hot, cold, wet, or windy it might be!

Date:

Astronomy

May. 30, 2012 Rise Set
Actual Time 5:00 AM AKDT 11:07 PM AKDT
Civil Twilight 3:42 AM AKDT 12:27 AM AKDT
Nautical Twilight Sun does not rise Sun does not rise
Astronomical Twilight Sun does not rise Sun does not rise
Moon 4:46 PM AKDT (5/30) 2:53 AM AKDT (5/30)
Length of Visible Light 20h 44m
Length of Day
18h 07m
Waxing Gibbous, 72% of the Moon is Illuminated
May 30
Waxing Gibbous
Jun 4
Full
Jun 11
Last Quarter
Jun 19
New
Jun 26
First Quarter

Hourly Weather History & Observations

Time (AKDT) Temp. Windchill Dew Point Humidity Pressure Visibility Wind Dir Wind Speed Gust Speed Precip Events Conditions
12:53 AM 46.0 °F 41.4 °F 33.1 °F 61% 29.38 in 10.0 mi ENE 9.2 mph - N/A   Mostly Cloudy
1:53 AM 46.9 °F - 32.0 °F 56% 29.36 in 10.0 mi ENE 11.5 mph - N/A   Overcast
2:53 AM 46.0 °F 41.4 °F 30.9 °F 56% 29.35 in 10.0 mi NNE 9.2 mph - N/A   Overcast
3:53 AM 46.0 °F 39.9 °F 30.9 °F 56% 29.32 in 10.0 mi NNE 13.8 mph 19.6 mph N/A   Overcast
4:53 AM 46.0 °F 40.6 °F 30.9 °F 56% 29.31 in 10.0 mi NNE 11.5 mph - N/A   Overcast
5:53 AM 46.0 °F 43.1 °F 30.9 °F 56% 29.31 in 10.0 mi NNE 5.8 mph - N/A   Overcast
6:53 AM 46.9 °F - 34.0 °F 61% 29.32 in 10.0 mi East 15.0 mph - N/A   Overcast
7:53 AM 46.0 °F 39.0 °F 34.0 °F 63% 29.35 in 10.0 mi East 17.3 mph - N/A   Partly Cloudy
8:53 AM 45.0 °F 38.9 °F 35.1 °F 68% 29.38 in 10.0 mi East 12.7 mph - N/A   Clear
9:53 AM 44.1 °F 38.1 °F 35.1 °F 71% 29.40 in 10.0 mi ESE 11.5 mph - N/A   Clear
10:53 AM 45.0 °F 40.6 °F 36.0 °F 71% 29.42 in 10.0 mi East 8.1 mph - N/A   Clear
11:53 AM 46.9 °F - 36.0 °F 66% 29.42 in 10.0 mi East 8.1 mph - N/A   Overcast
12:53 PM 48.0 °F - 36.0 °F 63% 29.42 in 10.0 mi ENE 6.9 mph - N/A   Overcast
1:53 PM 48.9 °F - 36.0 °F 61% 29.41 in 10.0 mi East 6.9 mph - N/A   Overcast
2:53 PM 48.9 °F - 34.0 °F 56% 29.40 in 10.0 mi East 8.1 mph - N/A   Overcast
3:53 PM 48.9 °F - 34.0 °F 56% 29.39 in 10.0 mi ENE 4.6 mph - N/A   Overcast
4:53 PM 50.0 °F - 35.1 °F 57% 29.39 in 10.0 mi ESE 6.9 mph - N/A   Overcast
5:53 PM 50.0 °F - 36.0 °F 59% 29.39 in 10.0 mi East 9.2 mph - N/A   Overcast
6:53 PM 48.9 °F - 36.0 °F 61% 29.39 in 10.0 mi East 5.8 mph - N/A   Overcast
7:53 PM 48.9 °F - 35.1 °F 59% 29.41 in 10.0 mi NE 3.5 mph - N/A   Overcast
8:53 PM 46.9 °F - 34.0 °F 61% 29.42 in 10.0 mi East 9.2 mph - N/A   Overcast
9:53 PM 46.9 °F - 35.1 °F 63% 29.42 in 10.0 mi East 5.8 mph - N/A   Partly Cloudy
10:53 PM 45.0 °F - 36.0 °F 71% 29.43 in 10.0 mi Calm Calm - N/A   Mostly Cloudy
11:53 PM 43.0 °F 41.3 °F 36.0 °F 76% 29.42 in 10.0 mi ENE 3.5 mph - N/A   Scattered Clouds